CCA0830 ZGSZ-ZBAA

Flight info

Callsign CCA0830
Flight time N/A
Altitude 31100
Route MIPAG W21 TEPID W22 YIN A461 BUBDA W56 DUGEB
Aircraft A320/L-V/N

Departure

Time 2026-04-26 10:57
Airport Shenzhen Bao'an International Airport (ZGSZ)

Arrival

Time N/A
Airport Beijing Capital International Airport (ZBAA)
Time Latitude Longitude Altitude Speed Heading
2026-04-26 10:50 22.65483 113.78788 15 ft 17 kts 334°
2026-04-26 10:50 22.65560 113.78748 15 ft 19 kts 333°
2026-04-26 10:50 22.65714 113.78663 15 ft 11 kts 333°
2026-04-26 10:50 22.65796 113.78618 15 ft 15 kts 333°
2026-04-26 10:51 22.65900 113.78561 15 ft 18 kts 333°
2026-04-26 10:51 22.66070 113.78468 15 ft 15 kts 334°
2026-04-26 10:51 22.66148 113.78426 15 ft 13 kts 334°
2026-04-26 10:52 22.66242 113.78376 15 ft 14 kts 331°
2026-04-26 10:52 22.66332 113.78325 15 ft 14 kts 333°
2026-04-26 10:52 22.66351 113.78245 17 ft 13 kts 239°
2026-04-26 10:52 22.66305 113.78151 15 ft 15 kts 249°
2026-04-26 10:53 22.66264 113.78033 17 ft 18 kts 248°
2026-04-26 10:53 22.66210 113.77941 15 ft 11 kts 240°
2026-04-26 10:53 22.66166 113.77859 15 ft 14 kts 226°
2026-04-26 10:54 22.65981 113.77794 17 ft 14 kts 208°
2026-04-26 10:54 22.65937 113.77735 15 ft 10 kts 243°
2026-04-26 10:54 22.65930 113.77721 15 ft 0 kts 243°
2026-04-26 10:55 22.65930 113.77720 15 ft 0 kts 243°
2026-04-26 10:55 22.65923 113.77705 15 ft 4 kts 243°
2026-04-26 10:55 22.65900 113.77665 15 ft 7 kts 220°
2026-04-26 10:55 22.65842 113.77667 15 ft 10 kts 153°
2026-04-26 10:56 22.65743 113.77725 15 ft 37 kts 153°
2026-04-26 10:56 22.65312 113.77961 15 ft 98 kts 153°
2026-04-26 10:56 22.64553 113.78379 15 ft 143 kts 154°
2026-04-26 10:56 22.63554 113.78917 103 ft 169 kts 154°
2026-04-26 10:57 22.62587 113.79457 749 ft 147 kts 153°
2026-04-26 10:57 22.61628 113.79993 902 ft 166 kts 154°
2026-04-26 10:57 22.60469 113.80310 1360 ft 177 kts 174°
2026-04-26 10:57 22.59218 113.80389 1983 ft 188 kts 176°
2026-04-26 10:58 22.57839 113.80511 2469 ft 210 kts 173°
2026-04-26 10:58 22.56313 113.80749 2954 ft 233 kts 169°
2026-04-26 10:58 22.54660 113.81087 3652 ft 247 kts 168°
2026-04-26 10:58 22.52965 113.81473 4576 ft 251 kts 168°
2026-04-26 10:59 22.51225 113.81634 5474 ft 254 kts 190°
2026-04-26 10:59 22.49595 113.80913 6345 ft 256 kts 219°
2026-04-26 10:59 22.48474 113.79426 7139 ft 258 kts 248°
2026-04-26 10:59 22.48084 113.77539 7935 ft 260 kts 266°
2026-04-26 11:00 22.47993 113.75573 8751 ft 263 kts 270°
2026-04-26 11:00 22.47995 113.73586 9585 ft 265 kts 280°
2026-04-26 11:00 22.48610 113.71724 10326 ft 265 kts 305°
2026-04-26 11:00 22.49912 113.70338 11088 ft 265 kts 330°
2026-04-26 11:01 22.51650 113.69678 11839 ft 268 kts 347°
2026-04-26 11:01 22.53545 113.69258 12201 ft 289 kts 348°
2026-04-26 11:01 22.55595 113.68804 12422 ft 313 kts 347°
2026-04-26 11:01 22.57824 113.68445 12631 ft 335 kts 355°
2026-04-26 11:02 22.60206 113.68447 13115 ft 347 kts
2026-04-26 11:02 22.62608 113.68818 13863 ft 351 kts
2026-04-26 11:02 22.65037 113.69271 14480 ft 356 kts
2026-04-26 11:02 22.67491 113.69714 15085 ft 360 kts
2026-04-26 11:03 22.69981 113.70161 15699 ft 365 kts
2026-04-26 11:03 22.72499 113.70615 16308 ft 369 kts
2026-04-26 11:03 22.75017 113.71070 16886 ft 374 kts
2026-04-26 11:03 22.77630 113.71543 17480 ft 378 kts
2026-04-26 11:04 22.80206 113.72011 18065 ft 382 kts
2026-04-26 11:04 22.82848 113.72491 18595 ft 386 kts
2026-04-26 11:04 22.85515 113.72975 19116 ft 390 kts
2026-04-26 11:04 22.88203 113.73464 19643 ft 394 kts
2026-04-26 11:05 22.90921 113.73954 20160 ft 397 kts
2026-04-26 11:05 22.93670 113.74201 20662 ft 397 kts 356°
2026-04-26 11:05 22.96423 113.74197 21179 ft 400 kts 355°
2026-04-26 11:05 22.99221 113.74199 21695 ft 404 kts 356°
2026-04-26 11:06 23.02047 113.74206 22197 ft 408 kts 356°
2026-04-26 11:06 23.03821 113.74212 22518 ft 410 kts 356°
2026-04-26 11:06 23.07759 113.74224 23209 ft 416 kts 355°
2026-04-26 11:06 23.10663 113.74233 23686 ft 419 kts 355°
2026-04-26 11:07 23.13588 113.74242 24134 ft 422 kts 355°
2026-04-26 11:07 23.16534 113.74250 24590 ft 424 kts 355°
2026-04-26 11:07 23.19489 113.74258 25034 ft 426 kts 355°
2026-04-26 11:07 23.22471 113.74267 25472 ft 429 kts 355°
2026-04-26 11:08 23.25434 113.74066 25885 ft 425 kts 345°
2026-04-26 11:08 23.28247 113.73167 26291 ft 420 kts 332°
2026-04-26 11:08 23.30772 113.71612 26703 ft 415 kts 320°
2026-04-26 11:08 23.32888 113.69505 27117 ft 412 kts 307°
2026-04-26 11:09 23.34379 113.67358 27471 ft 412 kts 303°
2026-04-26 11:09 23.36058 113.64820 27875 ft 414 kts 303°
2026-04-26 11:09 23.37717 113.62317 28261 ft 416 kts 303°
2026-04-26 11:09 23.39422 113.59747 28641 ft 419 kts 303°
2026-04-26 11:10 23.41132 113.57168 29002 ft 421 kts 303°
2026-04-26 11:10 23.42850 113.54577 29361 ft 423 kts 303°
2026-04-26 11:10 23.44577 113.51973 29711 ft 425 kts 303°
2026-04-26 11:10 23.46314 113.49352 30059 ft 427 kts 303°
2026-04-26 11:11 23.48056 113.46723 30400 ft 428 kts 303°
2026-04-26 11:11 23.49906 113.44175 30750 ft 431 kts 310°
2026-04-26 11:11 23.52170 113.42002 30905 ft 437 kts 321°
2026-04-26 11:11 23.54822 113.40342 30987 ft 442 kts 332°
2026-04-26 11:12 23.57754 113.39270 31021 ft 449 kts 343°
2026-04-26 11:12 23.60875 113.38848 31023 ft 456 kts 354°
2026-04-26 11:12 23.67250 113.39120 31027 ft 458 kts 358°
2026-04-26 11:13 23.73583 113.39418 31033 ft 458 kts 357°
2026-04-26 11:13 23.79943 113.39710 31037 ft 458 kts 357°
2026-04-26 11:14 23.86303 113.40000 31041 ft 457 kts 357°
2026-04-26 11:14 23.91629 113.40244 31037 ft 457 kts 357°
2026-04-26 11:15 23.99023 113.40583 31040 ft 457 kts 357°
2026-04-26 11:15 24.05381 113.40875 31034 ft 458 kts 357°
2026-04-26 11:16 24.11749 113.41169 31037 ft 458 kts 357°
2026-04-26 11:16 24.17041 113.41412 31044 ft 457 kts 357°
2026-04-26 11:17 24.23397 113.41672 31041 ft 457 kts 356°
2026-04-26 11:17 24.29742 113.41869 31051 ft 456 kts 356°
2026-04-26 11:18 24.36076 113.42070 31056 ft 455 kts 356°
2026-04-26 11:18 24.42410 113.42241 31047 ft 454 kts 355°
2026-04-26 11:19 24.48694 113.42410 31056 ft 454 kts 355°
2026-04-26 11:19 24.55002 113.42588 31053 ft 453 kts 355°
2026-04-26 11:20 24.61302 113.42768 31054 ft 452 kts 355°
2026-04-26 11:20 24.67600 113.42947 31055 ft 453 kts 355°
2026-04-26 11:21 24.73897 113.43125 31049 ft 452 kts 355°
2026-04-26 11:21 24.80202 113.43304 31052 ft 452 kts 355°
2026-04-26 11:22 24.86355 113.43479 31052 ft 452 kts 355°
2026-04-26 11:22 24.92647 113.43658 31048 ft 452 kts 355°
2026-04-26 11:23 24.98947 113.43837 31052 ft 453 kts 355°
2026-04-26 11:23 25.05247 113.44017 31054 ft 453 kts 355°
2026-04-26 11:24 25.11556 113.44197 31056 ft 453 kts 355°
2026-04-26 11:24 25.17858 113.44378 31057 ft 453 kts 355°
2026-04-26 11:25 25.24171 113.44558 31060 ft 454 kts 355°
2026-04-26 11:25 25.30481 113.44740 31063 ft 454 kts 355°
2026-04-26 11:26 25.36806 113.44922 31063 ft 454 kts 355°
2026-04-26 11:26 25.43091 113.45103 31067 ft 453 kts 355°
2026-04-26 11:27 25.49409 113.45285 31072 ft 456 kts 355°
2026-04-26 11:27 25.55734 113.45465 31071 ft 455 kts 355°
2026-04-26 11:28 25.62069 113.45647 31065 ft 455 kts 355°
2026-04-26 11:28 25.68402 113.45829 31056 ft 455 kts 355°
2026-04-26 11:29 25.74727 113.46013 31061 ft 455 kts 355°
2026-04-26 11:29 25.81064 113.46197 31062 ft 455 kts 355°
2026-04-26 11:30 25.86317 113.46347 31055 ft 455 kts 354°
2026-04-26 11:30 25.93677 113.46098 31046 ft 452 kts 352°
2026-04-26 11:31 25.99963 113.45861 31046 ft 452 kts 352°
2026-04-26 11:31 26.06262 113.45622 31046 ft 452 kts 352°
2026-04-26 11:32 26.12615 113.45365 31039 ft 465 kts 353°
2026-04-26 11:32 26.19099 113.45118 31031 ft 465 kts 353°
2026-04-26 11:33 26.25570 113.44874 31022 ft 465 kts 353°
2026-04-26 11:33 26.31998 113.44628 31024 ft 466 kts 353°
2026-04-26 11:34 26.38480 113.44378 31012 ft 465 kts 353°
2026-04-26 11:34 26.44948 113.44130 31012 ft 465 kts 354°
2026-04-26 11:35 26.51419 113.43881 30999 ft 465 kts 354°
2026-04-26 11:35 26.57898 113.43632 31000 ft 465 kts 354°
2026-04-26 11:36 26.64369 113.43384 31002 ft 465 kts 354°
2026-04-26 11:36 26.70842 113.43136 30994 ft 465 kts 354°
2026-04-26 11:37 26.77315 113.42887 30995 ft 465 kts 354°
2026-04-26 11:37 26.83788 113.42639 31000 ft 465 kts 354°
2026-04-26 11:38 26.90252 113.42391 30998 ft 464 kts 354°
2026-04-26 11:38 26.96713 113.42142 30994 ft 464 kts 354°
2026-04-26 11:39 27.03169 113.41894 30993 ft 464 kts 354°
2026-04-26 11:39 27.09583 113.41647 30992 ft 464 kts 353°
2026-04-26 11:40 27.16036 113.41398 30992 ft 464 kts 353°
2026-04-26 11:40 27.22488 113.41148 30989 ft 464 kts 353°
2026-04-26 11:42 27.48359 113.41044 30983 ft 465 kts 356°
2026-04-26 11:43 27.54835 113.41184 30983 ft 465 kts 356°
2026-04-26 11:43 27.61269 113.41310 30978 ft 465 kts 356°
2026-04-26 11:44 27.67735 113.41594 30978 ft 467 kts 360°
2026-04-26 11:44 27.74215 113.42177 30975 ft 467 kts 360°
2026-04-26 11:45 27.80686 113.42749 30976 ft 466 kts 360°
2026-04-26 11:45 27.86101 113.43228 30977 ft 466 kts 360°
2026-04-26 11:46 27.92412 113.43790 30980 ft 466 kts 360°
2026-04-26 11:46 27.98868 113.44357 30978 ft 466 kts 359°
2026-04-26 11:47 28.05326 113.44919 30983 ft 465 kts 359°
2026-04-26 11:47 28.11780 113.45467 30973 ft 464 kts 359°
2026-04-26 11:48 28.18227 113.45913 30982 ft 464 kts 358°
2026-04-26 11:49 28.30589 113.46781 30982 ft 463 kts 359°
2026-04-26 11:49 28.37031 113.47244 30979 ft 463 kts 359°
2026-04-26 11:50 28.43417 113.47703 30976 ft 462 kts 359°
2026-04-26 11:50 28.49840 113.48161 30980 ft 462 kts 359°
2026-04-26 11:51 28.56259 113.48618 30978 ft 461 kts 359°
2026-04-26 11:51 28.62676 113.49076 30980 ft 462 kts 359°
2026-04-26 11:52 28.69086 113.49535 30980 ft 461 kts 359°
2026-04-26 11:52 28.75493 113.49995 30980 ft 461 kts 359°
2026-04-26 11:53 28.81903 113.50455 30978 ft 460 kts 359°
2026-04-26 11:54 28.91468 113.51141 30975 ft 461 kts 359°
2026-04-26 11:54 28.97869 113.51603 30974 ft 461 kts 359°
2026-04-26 11:55 29.04278 113.52064 30975 ft 461 kts 359°
2026-04-26 11:55 29.10688 113.52526 30979 ft 461 kts 359°
2026-04-26 11:56 29.17054 113.52986 30978 ft 461 kts 359°
2026-04-26 11:56 29.23460 113.53450 30976 ft 460 kts 359°
2026-04-26 11:57 29.29863 113.53917 30975 ft 461 kts 359°
2026-04-26 11:57 29.36276 113.54470 30969 ft 462 kts 360°
2026-04-26 11:58 29.42692 113.55040 30963 ft 462 kts 359°
2026-04-26 11:58 29.49107 113.55600 30967 ft 463 kts 359°
2026-04-26 11:59 29.55538 113.56158 30961 ft 463 kts 359°
2026-04-26 11:59 29.61975 113.56717 30962 ft 464 kts 359°
2026-04-26 12:00 29.68418 113.57278 30960 ft 464 kts 359°
2026-04-26 12:00 29.74866 113.57840 30955 ft 465 kts 359°
2026-04-26 12:01 29.81321 113.58403 30954 ft 465 kts 359°
2026-04-26 12:01 29.87299 113.58925 30952 ft 465 kts 359°
2026-04-26 12:02 29.93749 113.59842 30949 ft 472 kts
2026-04-26 12:02 30.00015 113.62304 30955 ft 480 kts 19°
2026-04-26 12:03 30.06148 113.65366 30949 ft 480 kts 18°
2026-04-26 12:03 30.12293 113.68420 30950 ft 481 kts 18°
2026-04-26 12:04 30.18446 113.71490 30948 ft 482 kts 18°
2026-04-26 12:04 30.24615 113.74577 30949 ft 483 kts 18°
2026-04-26 12:05 30.30786 113.77669 30948 ft 483 kts 18°
2026-04-26 12:05 30.36911 113.80743 30946 ft 483 kts 18°
2026-04-26 12:06 30.43075 113.83840 30945 ft 482 kts 18°
2026-04-26 12:06 30.49236 113.86939 30946 ft 482 kts 18°
2026-04-26 12:07 30.55396 113.90042 30944 ft 482 kts 18°
2026-04-26 12:07 30.61507 113.93126 30948 ft 481 kts 18°
2026-04-26 12:08 30.67660 113.96177 30949 ft 480 kts 17°
2026-04-26 12:08 30.73730 113.99377 30950 ft 483 kts 20°
2026-04-26 12:09 30.79781 114.02748 30954 ft 482 kts 20°
2026-04-26 12:09 30.85869 114.06024 30953 ft 481 kts 19°
2026-04-26 12:10 30.91949 114.09300 30956 ft 481 kts 19°
2026-04-26 12:10 30.98026 114.12593 30950 ft 481 kts 19°
2026-04-26 12:11 31.04091 114.15890 30948 ft 481 kts 19°
2026-04-26 12:11 31.10146 114.19182 30945 ft 479 kts 19°
2026-04-26 12:12 31.16141 114.22445 30946 ft 477 kts 19°
2026-04-26 12:12 31.22130 114.25711 30944 ft 473 kts 19°
2026-04-26 12:13 31.28092 114.28964 30947 ft 472 kts 19°
2026-04-26 12:13 31.34089 114.31968 30950 ft 463 kts 11°
2026-04-26 12:14 31.40326 114.33291 30948 ft 450 kts 356°
2026-04-26 12:14 31.46565 114.33469 30954 ft 447 kts 355°
2026-04-26 12:15 31.52767 114.33665 30950 ft 445 kts 355°
2026-04-26 12:15 31.58962 114.33853 30958 ft 444 kts 355°
2026-04-26 12:16 31.65129 114.34035 30949 ft 442 kts 355°
2026-04-26 12:16 31.71270 114.34217 30947 ft 440 kts 355°
2026-04-26 12:17 31.77385 114.34401 30950 ft 438 kts 355°
2026-04-26 12:17 31.83440 114.34586 30951 ft 438 kts 355°
2026-04-26 12:18 31.89488 114.34769 30947 ft 437 kts 355°
2026-04-26 12:18 31.95577 114.34952 30944 ft 437 kts 355°
2026-04-26 12:19 32.01656 114.35136 30945 ft 437 kts 355°
2026-04-26 12:19 32.07747 114.35320 30943 ft 437 kts 355°
2026-04-26 12:20 32.13822 114.35504 30938 ft 437 kts 355°
2026-04-26 12:20 32.19910 114.35688 30941 ft 438 kts 355°
2026-04-26 12:21 32.25997 114.35873 30938 ft 438 kts 355°
2026-04-26 12:21 32.32075 114.36353 30937 ft 441 kts 358°
2026-04-26 12:22 32.38202 114.36981 30937 ft 442 kts 358°
2026-04-26 12:22 32.44332 114.37564 30938 ft 441 kts 358°
2026-04-26 12:23 32.50466 114.38127 30940 ft 441 kts 358°
2026-04-26 12:23 32.56594 114.38687 30940 ft 442 kts 358°
2026-04-26 12:24 32.62693 114.39245 30936 ft 442 kts 357°
2026-04-26 12:24 32.68817 114.39810 30938 ft 442 kts 358°
2026-04-26 12:25 32.78004 114.40667 30935 ft 441 kts 358°
2026-04-26 12:25 32.84113 114.41236 30934 ft 440 kts 357°
2026-04-26 12:26 32.90219 114.41806 30936 ft 440 kts 357°
2026-04-26 12:26 32.96312 114.42375 30937 ft 439 kts 357°
2026-04-26 12:27 33.02396 114.42945 30939 ft 438 kts 357°
2026-04-26 12:27 33.08437 114.43511 30940 ft 438 kts 357°
2026-04-26 12:28 33.14504 114.44081 30939 ft 437 kts 357°
2026-04-26 12:28 33.20561 114.44651 30938 ft 436 kts 357°
2026-04-26 12:29 33.26615 114.45220 30938 ft 436 kts 357°
2026-04-26 12:30 33.35684 114.46074 30938 ft 435 kts 356°
2026-04-26 12:30 33.41718 114.46641 30938 ft 435 kts 356°
2026-04-26 12:31 33.50764 114.47493 30945 ft 434 kts 356°
2026-04-26 12:31 33.56746 114.48058 30944 ft 434 kts 356°
2026-04-26 12:32 33.62762 114.48626 30943 ft 433 kts 356°
2026-04-26 12:33 33.71796 114.49470 30944 ft 433 kts 356°
2026-04-26 12:33 33.77802 114.50032 30948 ft 433 kts 356°
2026-04-26 12:34 33.83804 114.50595 30947 ft 433 kts 356°
2026-04-26 12:34 33.89783 114.51157 30948 ft 433 kts 356°
2026-04-26 12:35 33.95796 114.51725 30951 ft 433 kts 356°
2026-04-26 12:35 34.01804 114.52292 30953 ft 433 kts 356°
2026-04-26 12:36 34.07822 114.52861 30955 ft 434 kts 356°
2026-04-26 12:36 34.13850 114.53432 30959 ft 434 kts 356°
2026-04-26 12:37 34.19881 114.54004 30964 ft 435 kts 356°
2026-04-26 12:37 34.25919 114.54577 30963 ft 435 kts 356°
2026-04-26 12:38 34.31914 114.55148 30964 ft 435 kts 356°
2026-04-26 12:38 34.37957 114.55724 30966 ft 435 kts 356°
2026-04-26 12:39 34.43990 114.56300 30967 ft 435 kts 356°
2026-04-26 12:39 34.50033 114.56875 30967 ft 435 kts 355°
2026-04-26 12:40 34.56030 114.57442 30973 ft 435 kts 355°
2026-04-26 12:40 34.62077 114.58015 30972 ft 435 kts 355°
2026-04-26 12:41 34.68116 114.58589 30974 ft 435 kts 355°
2026-04-26 12:41 34.74157 114.59164 30974 ft 435 kts 355°
2026-04-26 12:42 34.80205 114.59740 30976 ft 435 kts 355°
2026-04-26 12:42 34.86201 114.60313 30978 ft 435 kts 355°
2026-04-26 12:43 34.92230 114.60889 30980 ft 434 kts 355°
2026-04-26 12:43 34.98258 114.61466 30983 ft 434 kts 355°
2026-04-26 12:44 35.04277 114.62044 30986 ft 434 kts 355°
2026-04-26 12:44 35.10294 114.62621 30989 ft 434 kts 355°
2026-04-26 12:45 35.16314 114.63201 30990 ft 433 kts 355°
2026-04-26 12:45 35.22323 114.63779 30993 ft 433 kts 355°
2026-04-26 12:46 35.28337 114.64359 30989 ft 433 kts 355°
2026-04-26 12:46 35.34305 114.64935 30994 ft 433 kts 355°
2026-04-26 12:47 35.40317 114.65517 30993 ft 433 kts 355°
2026-04-26 12:47 35.46330 114.66099 30999 ft 433 kts 355°
2026-04-26 12:48 35.51325 114.66584 30998 ft 433 kts 355°
2026-04-26 12:48 35.57327 114.67167 31003 ft 433 kts 355°
2026-04-26 12:49 35.63334 114.67751 31006 ft 433 kts 354°
2026-04-26 12:49 35.70313 114.68431 31006 ft 433 kts 354°
2026-04-26 12:50 35.76320 114.69017 31004 ft 433 kts 354°
2026-04-26 12:50 35.81313 114.69506 31008 ft 433 kts 354°
2026-04-26 12:51 35.87316 114.70093 31010 ft 433 kts 354°
2026-04-26 12:51 35.93333 114.70683 31013 ft 433 kts 354°
2026-04-26 12:52 35.99344 114.71273 31013 ft 433 kts 354°
2026-04-26 12:52 36.05357 114.71864 31012 ft 433 kts 354°
2026-04-26 12:53 36.11366 114.72455 31017 ft 433 kts 354°
2026-04-26 12:53 36.17375 114.73042 31016 ft 433 kts 354°
2026-04-26 12:54 36.23382 114.73629 31018 ft 433 kts 354°
2026-04-26 12:54 36.29389 114.74219 31020 ft 433 kts 354°
2026-04-26 12:55 36.35394 114.75037 31019 ft 441 kts
2026-04-26 12:55 36.41366 114.77323 31018 ft 458 kts 13°
2026-04-26 12:56 36.47151 114.80667 31017 ft 461 kts 14°
2026-04-26 12:56 36.52959 114.84017 31017 ft 460 kts 14°
2026-04-26 12:57 36.58770 114.87380 31016 ft 460 kts 14°
2026-04-26 12:57 36.64566 114.90746 31014 ft 459 kts 14°
2026-04-26 12:58 36.73249 114.95802 31015 ft 458 kts 14°
2026-04-26 12:58 36.79027 114.99171 31015 ft 459 kts 14°
2026-04-26 12:59 36.84768 115.02525 31017 ft 458 kts 14°
2026-04-26 12:59 36.90555 115.05912 30719 ft 459 kts 14°
2026-04-26 13:00 36.93448 115.07607 30481 ft 459 kts 14°
2026-04-26 13:00 36.96340 115.09305 30248 ft 458 kts 14°
2026-04-26 13:00 36.99221 115.10997 30014 ft 457 kts 14°
2026-04-26 13:00 37.02094 115.12686 29747 ft 455 kts 14°
2026-04-26 13:01 37.04954 115.14369 29472 ft 453 kts 14°
2026-04-26 13:01 37.07798 115.16043 29200 ft 450 kts 14°
2026-04-26 13:01 37.10589 115.17686 28932 ft 448 kts 14°
2026-04-26 13:01 37.13406 115.19346 28666 ft 446 kts 14°
2026-04-26 13:02 37.16209 115.21000 28407 ft 444 kts 14°
2026-04-26 13:02 37.18998 115.22646 28144 ft 442 kts 14°
2026-04-26 13:02 37.21776 115.24286 27887 ft 440 kts 14°
2026-04-26 13:02 37.24539 115.25918 27630 ft 438 kts 15°
2026-04-26 13:03 37.27299 115.27550 27379 ft 436 kts 15°
2026-04-26 13:03 37.30040 115.29172 27128 ft 434 kts 15°
2026-04-26 13:03 37.32765 115.30786 26877 ft 432 kts 15°
2026-04-26 13:03 37.35485 115.32398 26626 ft 431 kts 15°
2026-04-26 13:04 37.38196 115.34007 26377 ft 429 kts 15°
2026-04-26 13:04 37.40891 115.35607 26129 ft 427 kts 16°
2026-04-26 13:04 37.43570 115.37198 25893 ft 425 kts 16°
2026-04-26 13:04 37.46207 115.38766 25657 ft 423 kts 16°
2026-04-26 13:05 37.48867 115.40350 25418 ft 422 kts 17°
2026-04-26 13:05 37.51524 115.41932 25179 ft 420 kts 17°
2026-04-26 13:05 37.54158 115.43503 24945 ft 418 kts 17°
2026-04-26 13:05 37.56776 115.45066 24713 ft 416 kts 17°
2026-04-26 13:06 37.59391 115.46627 24477 ft 414 kts 17°
2026-04-26 13:06 37.61990 115.48181 24245 ft 413 kts 18°
2026-04-26 13:06 37.64578 115.49729 24023 ft 411 kts 18°
2026-04-26 13:06 37.67154 115.51271 23799 ft 409 kts 18°
2026-04-26 13:07 37.69722 115.52810 23576 ft 407 kts 18°
2026-04-26 13:07 37.72284 115.54346 23321 ft 406 kts 18°
2026-04-26 13:07 37.74792 115.55851 23052 ft 404 kts 19°
2026-04-26 13:07 37.77373 115.57341 22780 ft 398 kts 14°
2026-04-26 13:08 37.79970 115.58279 22518 ft 389 kts
2026-04-26 13:08 37.82635 115.58620 22253 ft 382 kts 355°
2026-04-26 13:08 37.85275 115.58465 21990 ft 378 kts 351°
2026-04-26 13:08 37.87903 115.58263 21732 ft 377 kts 351°
2026-04-26 13:09 37.90523 115.58071 21471 ft 376 kts 352°
2026-04-26 13:09 37.93134 115.57881 21212 ft 375 kts 352°
2026-04-26 13:09 37.95740 115.57690 20963 ft 375 kts 352°
2026-04-26 13:09 37.98340 115.57499 20707 ft 374 kts 352°
2026-04-26 13:10 38.00935 115.57308 20466 ft 372 kts 352°
2026-04-26 13:10 38.03518 115.57117 20215 ft 372 kts 352°
2026-04-26 13:10 38.06098 115.56926 19969 ft 371 kts 352°
2026-04-26 13:10 38.08672 115.56736 19724 ft 371 kts 353°
2026-04-26 13:11 38.11214 115.56609 19486 ft 370 kts 354°
2026-04-26 13:11 38.13816 115.56485 19239 ft 369 kts 353°
2026-04-26 13:11 38.16349 115.56319 18993 ft 368 kts 353°
2026-04-26 13:11 38.18906 115.56137 18778 ft 367 kts 353°
2026-04-26 13:12 38.21452 115.55952 18539 ft 366 kts 353°
2026-04-26 13:12 38.23998 115.55784 18306 ft 367 kts 355°
2026-04-26 13:12 38.26550 115.56051 18049 ft 370 kts
2026-04-26 13:12 38.29030 115.56964 17786 ft 374 kts 18°
2026-04-26 13:13 38.31381 115.58396 17527 ft 375 kts 22°
2026-04-26 13:13 38.33720 115.59876 17265 ft 374 kts 22°
2026-04-26 13:13 38.36049 115.61341 17004 ft 372 kts 22°
2026-04-26 13:13 38.38365 115.62796 16756 ft 370 kts 22°
2026-04-26 13:14 38.40641 115.64227 16670 ft 370 kts 22°
2026-04-26 13:14 38.42950 115.65680 16647 ft 370 kts 22°
2026-04-26 13:14 38.45266 115.67139 16645 ft 371 kts 22°
2026-04-26 13:14 38.47582 115.68600 16645 ft 370 kts 22°
2026-04-26 13:15 38.49892 115.70059 16644 ft 370 kts 22°
2026-04-26 13:15 38.52201 115.71518 16648 ft 370 kts 22°
2026-04-26 13:15 38.54516 115.72980 16647 ft 370 kts 22°
2026-04-26 13:15 38.56051 115.73951 16652 ft 370 kts 22°
2026-04-26 13:16 38.59112 115.75889 16647 ft 371 kts 22°
2026-04-26 13:16 38.61424 115.77353 16649 ft 370 kts 23°
2026-04-26 13:16 38.63731 115.78816 16650 ft 370 kts 23°
2026-04-26 13:16 38.65997 115.80401 16650 ft 373 kts 29°
2026-04-26 13:17 38.70083 115.84561 16647 ft 376 kts 37°
2026-04-26 13:17 38.72083 115.86715 16650 ft 376 kts 37°
2026-04-26 13:18 38.76086 115.91016 16649 ft 376 kts 37°
2026-04-26 13:18 38.78087 115.93168 16649 ft 375 kts 37°
2026-04-26 13:18 38.82089 115.97482 16650 ft 375 kts 37°
2026-04-26 13:19 38.84082 115.99634 16654 ft 375 kts 37°
2026-04-26 13:19 38.86056 116.01767 16654 ft 375 kts 37°
2026-04-26 13:19 38.88071 116.03946 16655 ft 375 kts 37°
2026-04-26 13:19 38.90044 116.06081 16654 ft 375 kts 37°
2026-04-26 13:20 38.92034 116.08236 16652 ft 375 kts 37°
2026-04-26 13:20 38.94024 116.10393 16656 ft 375 kts 37°
2026-04-26 13:20 38.96018 116.12555 16652 ft 374 kts 37°
2026-04-26 13:20 38.98009 116.14716 16654 ft 374 kts 37°
2026-04-26 13:21 39.00004 116.16883 16569 ft 375 kts 37°
2026-04-26 13:21 39.01383 116.18204 16480 ft 370 kts 27°
2026-04-26 13:21 39.04579 116.19564 16322 ft 359 kts
2026-04-26 13:21 39.07057 116.19422 16201 ft 355 kts 351°
2026-04-26 13:22 39.09518 116.19048 16077 ft 355 kts 350°
2026-04-26 13:22 39.11136 116.18799 15996 ft 354 kts 350°
2026-04-26 13:22 39.12496 116.18589 15927 ft 353 kts 350°
2026-04-26 13:22 39.14935 116.18216 15803 ft 353 kts 350°
2026-04-26 13:23 39.17374 116.17845 15677 ft 353 kts 350°
2026-04-26 13:23 39.19778 116.17480 15554 ft 352 kts 350°
2026-04-26 13:23 39.22207 116.17113 15432 ft 352 kts 350°
2026-04-26 13:23 39.24635 116.16745 15313 ft 351 kts 350°
2026-04-26 13:24 39.27058 116.16379 15192 ft 350 kts 350°
2026-04-26 13:24 39.29476 116.16013 15071 ft 350 kts 350°
2026-04-26 13:24 39.31889 116.15647 14952 ft 349 kts 350°
2026-04-26 13:24 39.34301 116.15281 14830 ft 348 kts 350°
2026-04-26 13:25 39.36706 116.14916 14711 ft 348 kts 350°
2026-04-26 13:25 39.39113 116.14550 14588 ft 347 kts 350°
2026-04-26 13:25 39.41513 116.14185 14468 ft 347 kts 350°
2026-04-26 13:25 39.43905 116.13821 14345 ft 346 kts 350°
2026-04-26 13:26 39.46291 116.13458 14233 ft 345 kts 350°
2026-04-26 13:26 39.48677 116.13094 14109 ft 345 kts 350°
2026-04-26 13:26 39.51023 116.12737 14000 ft 344 kts 350°
2026-04-26 13:26 39.53398 116.12374 13879 ft 343 kts 351°
2026-04-26 13:27 39.55769 116.12012 13753 ft 343 kts 350°
2026-04-26 13:27 39.58141 116.11649 13627 ft 342 kts 350°
2026-04-26 13:27 39.60499 116.11288 13498 ft 341 kts 350°
2026-04-26 13:27 39.62852 116.10927 13362 ft 340 kts 351°
2026-04-26 13:28 39.65204 116.10566 13235 ft 340 kts 351°
2026-04-26 13:28 39.67553 116.10205 13102 ft 339 kts 351°
2026-04-26 13:28 39.69897 116.09845 12971 ft 339 kts 351°
2026-04-26 13:28 39.72239 116.09485 12837 ft 338 kts 351°
2026-04-26 13:29 39.74564 116.09128 12760 ft 337 kts 351°
2026-04-26 13:29 39.75428 116.08995 12755 ft 336 kts 351°
2026-04-26 13:29 39.78517 116.08519 12754 ft 338 kts 351°
2026-04-26 13:29 39.80835 116.08162 12738 ft 329 kts 351°
2026-04-26 13:30 39.83052 116.07870 12748 ft 312 kts 354°
2026-04-26 13:30 39.85168 116.07865 12740 ft 295 kts 357°
2026-04-26 13:30 39.87165 116.07879 12752 ft 278 kts 356°
2026-04-26 13:30 39.89047 116.07882 12742 ft 263 kts 356°
2026-04-26 13:31 39.90901 116.07879 12744 ft 269 kts 356°
2026-04-26 13:31 39.92777 116.07875 12749 ft 269 kts 356°
2026-04-26 13:31 39.94642 116.07873 12743 ft 268 kts 356°
2026-04-26 13:31 39.96507 116.07874 12746 ft 268 kts 356°
2026-04-26 13:32 39.98372 116.07876 12744 ft 268 kts 356°
2026-04-26 13:32 40.00242 116.07878 12741 ft 268 kts 356°
2026-04-26 13:32 40.02107 116.07881 12734 ft 268 kts 356°
2026-04-26 13:32 40.03972 116.07885 12598 ft 267 kts 356°
2026-04-26 13:33 40.05829 116.07888 12438 ft 266 kts 356°
2026-04-26 13:33 40.07634 116.07708 12287 ft 262 kts 340°
2026-04-26 13:33 40.09212 116.06597 12139 ft 258 kts 316°
2026-04-26 13:33 40.10343 116.04797 12000 ft 258 kts 305°
2026-04-26 13:34 40.11407 116.02900 11844 ft 258 kts 305°
2026-04-26 13:34 40.12464 116.01022 11689 ft 256 kts 305°
2026-04-26 13:34 40.13459 115.99273 11551 ft 257 kts 308°
2026-04-26 13:34 40.13851 115.98670 11497 ft 257 kts 311°
2026-04-26 13:35 40.16102 115.96117 11250 ft 259 kts 319°
2026-04-26 13:35 40.17030 115.95139 11150 ft 258 kts 319°
2026-04-26 13:35 40.18427 115.93655 11003 ft 258 kts 319°
2026-04-26 13:35 40.19819 115.92169 10857 ft 258 kts 319°
2026-04-26 13:36 40.21285 115.90808 10708 ft 260 kts 328°
2026-04-26 13:36 40.22910 115.89780 10562 ft 260 kts 333°
2026-04-26 13:36 40.24551 115.88801 10418 ft 259 kts 333°
2026-04-26 13:36 40.26728 115.87480 10227 ft 261 kts 332°
2026-04-26 13:37 40.27839 115.86803 10126 ft 260 kts 332°
2026-04-26 13:37 40.29534 115.85962 9988 ft 262 kts 342°
2026-04-26 13:37 40.31325 115.85495 9847 ft 263 kts 347°
2026-04-26 13:37 40.33104 115.85073 9691 ft 263 kts 347°
2026-04-26 13:38 40.34927 115.84849 9525 ft 267 kts
2026-04-26 13:38 40.36679 115.85684 9373 ft 273 kts 32°
2026-04-26 13:38 40.37967 115.87513 9219 ft 278 kts 61°
2026-04-26 13:38 40.38511 115.89938 9078 ft 279 kts 84°
2026-04-26 13:39 40.38593 115.92476 8928 ft 278 kts 91°
2026-04-26 13:39 40.38580 115.95002 8811 ft 276 kts 91°
2026-04-26 13:39 40.38592 115.97513 8796 ft 276 kts 90°
2026-04-26 13:39 40.38649 116.00046 8808 ft 278 kts 88°
2026-04-26 13:40 40.38739 116.02572 8808 ft 276 kts 88°
2026-04-26 13:40 40.38844 116.05080 8796 ft 275 kts 88°
2026-04-26 13:40 40.38956 116.07591 8809 ft 277 kts 87°
2026-04-26 13:40 40.39070 116.10124 8802 ft 278 kts 87°
2026-04-26 13:41 40.39182 116.12652 8688 ft 278 kts 88°
2026-04-26 13:41 40.39294 116.15138 8518 ft 275 kts 88°
2026-04-26 13:41 40.39407 116.17685 8200 ft 277 kts 88°
2026-04-26 13:41 40.39517 116.20184 7869 ft 278 kts 88°
2026-04-26 13:42 40.39627 116.22703 7524 ft 276 kts 89°
2026-04-26 13:42 40.39736 116.25207 7178 ft 273 kts 89°
2026-04-26 13:42 40.39842 116.27672 6872 ft 269 kts 89°
2026-04-26 13:42 40.39945 116.30107 6563 ft 266 kts 89°
2026-04-26 13:43 40.40044 116.32515 6246 ft 264 kts 89°
2026-04-26 13:43 40.40151 116.34905 5913 ft 262 kts 90°
2026-04-26 13:43 40.40258 116.37289 5595 ft 261 kts 90°
2026-04-26 13:43 40.40364 116.39641 5417 ft 254 kts 90°
2026-04-26 13:44 40.40466 116.41916 5318 ft 244 kts 89°
2026-04-26 13:44 40.40559 116.44075 5135 ft 232 kts 90°
2026-04-26 13:44 40.40645 116.46149 4940 ft 226 kts 92°
2026-04-26 13:44 40.40670 116.48250 4678 ft 231 kts 94°
2026-04-26 13:45 40.40670 116.50317 4404 ft 227 kts 94°
2026-04-26 13:45 40.40669 116.52375 4083 ft 225 kts 94°
2026-04-26 13:45 40.40425 116.54343 3829 ft 212 kts 120°
2026-04-26 13:45 40.39529 116.55731 3731 ft 196 kts 148°
2026-04-26 13:46 40.38280 116.56482 3678 ft 198 kts 166°
2026-04-26 13:46 40.36954 116.56838 3678 ft 194 kts 172°
2026-04-26 13:46 40.35604 116.57062 3592 ft 196 kts 174°
2026-04-26 13:46 40.34272 116.57271 3508 ft 192 kts 173°
2026-04-26 13:47 40.32924 116.57486 3432 ft 197 kts 173°
2026-04-26 13:47 40.31555 116.57703 3432 ft 197 kts 173°
2026-04-26 13:47 40.30202 116.57919 3450 ft 196 kts 173°
2026-04-26 13:47 40.28859 116.58132 3353 ft 189 kts 173°
2026-04-26 13:48 40.27601 116.58332 3243 ft 175 kts 173°
2026-04-26 13:48 40.26425 116.58519 3024 ft 164 kts 172°
2026-04-26 13:48 40.25251 116.58706 2940 ft 174 kts 173°
2026-04-26 13:48 40.24065 116.58893 2848 ft 174 kts 173°
2026-04-26 13:49 40.22864 116.59084 2762 ft 173 kts 173°
2026-04-26 13:49 40.21680 116.59272 2663 ft 171 kts 172°
2026-04-26 13:49 40.20489 116.59460 2470 ft 172 kts 172°
2026-04-26 13:49 40.19302 116.59649 2242 ft 170 kts 172°
2026-04-26 13:50 40.18192 116.59823 2013 ft 152 kts 172°
2026-04-26 13:50 40.17211 116.59979 1825 ft 132 kts 172°
2026-04-26 13:50 40.16317 116.60121 1637 ft 132 kts 173°
2026-04-26 13:50 40.15413 116.60264 1449 ft 130 kts 173°
2026-04-26 13:51 40.14502 116.60408 1411 ft 133 kts 173°
2026-04-26 13:51 40.13914 116.60501 1562 ft 134 kts 173°
2026-04-26 13:51 40.13447 116.60575 1779 ft 134 kts 173°
2026-04-26 13:51 40.12579 116.60712 2379 ft 130 kts 172°
2026-04-26 13:52 40.11666 116.60856 2534 ft 131 kts 172°
2026-04-26 13:52 40.10782 116.60996 2640 ft 131 kts 172°